Time,TemperatureF,DewpointF,PressureIn,WindDirection,WindDirectionDegrees,WindSpeedMPH,WindSpeedGustMPH,Humidity,HourlyPrecipIn,Conditions,Clouds,dailyrainin,SoftwareType,DateUTC
2013-04-09 00:03:00,-999.0,-99.9,30.15,ENE,64,3.0,6.0,-999,-99.99,,,-99.99,,2013-04-09 04:03:00,
2013-04-09 00:23:00,73.0,-99.9,30.15,North,-999,-999.0,-999.0,-999,-99.99,,,-99.99,,2013-04-09 04:23:00,
2013-04-09 00:33:00,-999.0,-99.9,30.15,SE,124,6.0,8.0,-999,-99.99,,,-99.99,,2013-04-09 04:33:00,
2013-04-09 00:43:00,-999.0,-99.9,30.15,SE,127,6.0,11.0,-999,-99.99,,,-99.99,,2013-04-09 04:43:00,
2013-04-09 00:53:00,-999.0,-99.9,30.15,SE,127,6.0,11.0,-999,-99.99,,,-99.99,,2013-04-09 04:53:00,
2013-04-09 01:22:00,71.0,-99.9,30.14,North,-999,-999.0,-999.0,-999,-99.99,,,-99.99,,2013-04-09 05:22:00,
2013-04-09 01:33:00,71.0,-99.9,30.14,North,-999,-999.0,-999.0,-999,-99.99,,,-99.99,,2013-04-09 05:33:00,
2013-04-09 01:43:00,-999.0,-99.9,30.14,SE,124,9.0,12.0,-999,-99.99,,,-99.99,,2013-04-09 05:43:00,
2013-04-09 01:52:00,71.0,-99.9,30.13,North,-999,-999.0,-999.0,-999,-99.99,,,-99.99,,2013-04-09 05:52:00,
2013-04-09 02:02:00,-999.0,-99.9,30.13,SE,128,11.0,14.0,-999,-99.99,,,-99.99,,2013-04-09 06:02:00,
2013-04-09 02:22:00,70.0,-99.9,30.13,North,-999,-999.0,-999.0,-999,-99.99,,,-99.99,,2013-04-09 06:22:00,
2013-04-09 02:32:00,70.0,-99.9,30.12,North,-999,-999.0,-999.0,-999,-99.99,,,-99.99,,2013-04-09 06:32:00,
2013-04-09 02:42:00,70.0,-99.9,30.13,North,-999,-999.0,-999.0,-999,-99.99,,,-99.99,,2013-04-09 06:42:00,
2013-04-09 02:52:00,-999.0,-99.9,30.12,SE,141,13.0,17.0,-999,-99.99,,,-99.99,,2013-04-09 06:52:00,
2013-04-09 03:13:00,-999.0,-99.9,30.12,SE,143,13.0,18.0,-999,-99.99,,,-99.99,,2013-04-09 07:13:00,
2013-04-09 03:22:00,69.0,-99.9,30.11,North,-999,-999.0,-999.0,-999,-99.99,,,-99.99,,2013-04-09 07:22:00,
2013-04-09 03:32:00,-999.0,-99.9,30.11,SE,143,14.0,16.0,-999,-99.99,,,-99.99,,2013-04-09 07:32:00,
2013-04-09 03:42:00,-999.0,-99.9,30.11,SSE,152,14.0,16.0,-999,-99.99,,,-99.99,,2013-04-09 07:42:00,
2013-04-09 03:53:00,69.0,-99.9,30.10,North,-999,-999.0,-999.0,-999,-99.99,,,-99.99,,2013-04-09 07:53:00,
2013-04-09 04:03:00,-999.0,-99.9,30.10,SSE,151,13.0,15.0,-999,-99.99,,,-99.99,,2013-04-09 08:03:00,
2013-04-09 04:13:00,-999.0,-99.9,30.10,SSE,150,13.0,15.0,-999,-99.99,,,-99.99,,2013-04-09 08:13:00,
2013-04-09 04:22:00,68.0,-99.9,30.10,North,-999,-999.0,-999.0,-999,-99.99,,,-99.99,,2013-04-09 08:22:00,
2013-04-09 04:32:00,-999.0,-99.9,30.09,SSE,150,13.0,15.0,-999,-99.99,,,-99.99,,2013-04-09 08:32:00,
2013-04-09 04:42:00,-999.0,-99.9,30.09,SSE,150,11.0,13.0,-999,-99.99,,,-99.99,,2013-04-09 08:42:00,
2013-04-09 04:52:00,-999.0,-99.9,30.09,SSE,151,11.0,14.0,-999,-99.99,,,-99.99,,2013-04-09 08:52:00,
2013-04-09 05:03:00,69.0,-99.9,30.09,North,-999,-999.0,-999.0,-999,-99.99,,,-99.99,,2013-04-09 09:03:00,
2013-04-09 05:13:00,-999.0,-99.9,30.09,SE,144,11.0,12.0,-999,-99.99,,,-99.99,,2013-04-09 09:13:00,
2013-04-09 05:23:00,-999.0,-99.9,30.09,SE,131,8.0,11.0,-999,-99.99,,,-99.99,,2013-04-09 09:23:00,
2013-04-09 05:44:00,-999.0,-99.9,30.09,SE,134,9.0,11.0,-999,-99.99,,,-99.99,,2013-04-09 09:44:00,
2013-04-09 05:53:00,68.0,-99.9,30.10,North,-999,-999.0,-999.0,-999,-99.99,,,-99.99,,2013-04-09 09:53:00,
2013-04-09 06:04:00,69.0,-99.9,30.10,North,-999,-999.0,-999.0,-999,-99.99,,,-99.99,,2013-04-09 10:04:00,
2013-04-09 06:24:00,-999.0,-99.9,30.10,SE,146,9.0,11.0,-999,-99.99,,,-99.99,,2013-04-09 10:24:00,
2013-04-09 06:33:00,-999.0,-99.9,30.11,SE,144,9.0,10.0,-999,-99.99,,,-99.99,,2013-04-09 10:33:00,
2013-04-09 06:43:00,-999.0,-99.9,30.11,SE,134,6.0,10.0,-999,-99.99,,,-99.99,,2013-04-09 10:43:00,
2013-04-09 06:54:00,69.0,-99.9,30.12,North,-999,-999.0,-999.0,-999,-99.99,,,-99.99,,2013-04-09 10:54:00,
2013-04-09 07:02:00,-999.0,-99.9,30.12,SE,129,5.0,8.0,-999,-99.99,,,-99.99,,2013-04-09 11:02:00,
2013-04-09 07:22:00,68.0,-99.9,30.13,North,-999,-999.0,-999.0,-999,-99.99,,,-99.99,,2013-04-09 11:22:00,
2013-04-09 07:32:00,-999.0,-99.9,30.13,ESE,119,5.0,7.0,-999,-99.99,,,-99.99,,2013-04-09 11:32:00,
2013-04-09 07:43:00,68.0,-99.9,30.13,North,-999,-999.0,-999.0,-999,-99.99,,,-99.99,,2013-04-09 11:43:00,
2013-04-09 07:52:00,68.0,-99.9,30.13,North,-999,-999.0,-999.0,-999,-99.99,,,-99.99,,2013-04-09 11:52:00,
2013-04-09 08:12:00,-999.0,-99.9,30.14,SE,127,5.0,6.0,-999,-99.99,,,-99.99,,2013-04-09 12:12:00,
2013-04-09 08:22:00,-999.0,-99.9,30.14,ESE,123,4.0,6.0,-999,-99.99,,,-99.99,,2013-04-09 12:22:00,
2013-04-09 08:33:00,70.0,-99.9,30.15,North,-999,-999.0,-999.0,-999,-99.99,,,-99.99,,2013-04-09 12:33:00,
2013-04-09 08:43:00,70.0,-99.9,30.15,North,-999,-999.0,-999.0,-999,-99.99,,,-99.99,,2013-04-09 12:43:00,
2013-04-09 08:53:00,-999.0,-99.9,30.15,ESE,118,4.0,7.0,-999,-99.99,,,-99.99,,2013-04-09 12:53:00,
2013-04-09 09:03:00,-999.0,-99.9,30.15,ESE,115,4.0,6.0,-999,-99.99,,,-99.99,,2013-04-09 13:03:00,
2013-04-09 09:13:00,-999.0,-99.9,30.16,ESE,104,3.0,6.0,-999,-99.99,,,-99.99,,2013-04-09 13:13:00,
2013-04-09 09:23:00,-999.0,-99.9,30.16,East,94,4.0,6.0,-999,-99.99,,,-99.99,,2013-04-09 13:23:00,
2013-04-09 09:33:00,71.0,-99.9,30.16,North,-999,-999.0,-999.0,-999,-99.99,,,-99.99,,2013-04-09 13:33:00,
2013-04-09 09:43:00,71.0,-99.9,30.16,North,-999,-999.0,-999.0,-999,-99.99,,,-99.99,,2013-04-09 13:43:00,
2013-04-09 09:54:00,70.0,-99.9,30.17,North,-999,-999.0,-999.0,-999,-99.99,,,-99.99,,2013-04-09 13:54:00,
2013-04-09 10:03:00,-999.0,-99.9,30.16,ENE,77,5.0,9.0,-999,-99.99,,,-99.99,,2013-04-09 14:03:00,
2013-04-09 10:22:00,-999.0,-99.9,30.17,East,81,6.0,9.0,-999,-99.99,,,-99.99,,2013-04-09 14:22:00,
2013-04-09 10:33:00,-999.0,-99.9,30.17,ENE,75,5.0,8.0,-999,-99.99,,,-99.99,,2013-04-09 14:33:00,
2013-04-09 10:43:00,72.0,-99.9,30.17,North,-999,-999.0,-999.0,-999,-99.99,,,-99.99,,2013-04-09 14:43:00,
2013-04-09 10:53:00,72.0,-99.9,30.18,North,-999,-999.0,-999.0,-999,-99.99,,,-99.99,,2013-04-09 14:53:00,
2013-04-09 11:03:00,-999.0,-99.9,30.18,ENE,68,4.0,7.0,-999,-99.99,,,-99.99,,2013-04-09 15:03:00,
2013-04-09 11:23:00,74.0,-99.9,30.18,North,-999,-999.0,-999.0,-999,-99.99,,,-99.99,,2013-04-09 15:23:00,
2013-04-09 11:35:00,-999.0,-99.9,30.18,ENE,71,4.0,7.0,-999,-99.99,,,-99.99,,2013-04-09 15:35:00,
2013-04-09 11:44:00,-999.0,-99.9,30.18,East,100,3.0,7.0,-999,-99.99,,,-99.99,,2013-04-09 15:44:00,
2013-04-09 11:54:00,76.0,-99.9,30.18,North,-999,-999.0,-999.0,-999,-99.99,,,-99.99,,2013-04-09 15:54:00,
2013-04-09 12:13:00,-999.0,-99.9,30.18,East,98,5.0,7.0,-999,-99.99,,,-99.99,,2013-04-09 16:13:00,
2013-04-09 12:24:00,77.0,-99.9,30.18,North,-999,-999.0,-999.0,-999,-99.99,,,-99.99,,2013-04-09 16:24:00,
2013-04-09 12:34:00,-999.0,-99.9,30.18,East,92,4.0,7.0,-999,-99.99,,,-99.99,,2013-04-09 16:34:00,
2013-04-09 12:54:00,78.0,-99.9,30.17,North,-999,-999.0,-999.0,-999,-99.99,,,-99.99,,2013-04-09 16:54:00,
2013-04-09 13:03:00,-999.0,-99.9,30.17,ESE,115,5.0,8.0,-999,-99.99,,,-99.99,,2013-04-09 17:03:00,
2013-04-09 13:13:00,-999.0,-99.9,30.16,ESE,104,3.0,8.0,-999,-99.99,,,-99.99,,2013-04-09 17:13:00,
2013-04-09 13:23:00,-999.0,-99.9,30.16,ESE,109,3.0,7.0,-999,-99.99,,,-99.99,,2013-04-09 17:23:00,
2013-04-09 13:43:00,77.0,-99.9,30.15,North,-999,-999.0,-999.0,-999,-99.99,,,-99.99,,2013-04-09 17:43:00,
2013-04-09 13:55:00,77.0,-99.9,30.15,North,-999,-999.0,-999.0,-999,-99.99,,,-99.99,,2013-04-09 17:55:00,
2013-04-09 14:03:00,-999.0,-99.9,30.14,SE,132,6.0,8.0,-999,-99.99,,,-99.99,,2013-04-09 18:03:00,
2013-04-09 14:23:00,78.0,-99.9,30.14,North,-999,-999.0,-999.0,-999,-99.99,,,-99.99,,2013-04-09 18:23:00,
2013-04-09 14:33:00,-999.0,-99.9,30.14,SSE,155,8.0,9.0,-999,-99.99,,,-99.99,,2013-04-09 18:33:00,
2013-04-09 14:43:00,-999.0,-99.9,30.13,SE,144,8.0,10.0,-999,-99.99,,,-99.99,,2013-04-09 18:43:00,
2013-04-09 14:53:00,-999.0,-99.9,30.13,SE,144,8.0,10.0,-999,-99.99,,,-99.99,,2013-04-09 18:53:00,
2013-04-09 15:03:00,76.0,-99.9,30.13,North,-999,-999.0,-999.0,-999,-99.99,,,-99.99,,2013-04-09 19:03:00,
2013-04-09 15:12:00,76.0,-99.9,30.13,North,-999,-999.0,-999.0,-999,-99.99,,,-99.99,,2013-04-09 19:12:00,
2013-04-09 15:23:00,76.0,-99.9,30.13,North,-999,-999.0,-999.0,-999,-99.99,,,-99.99,,2013-04-09 19:23:00,
2013-04-09 15:33:00,-999.0,-99.9,30.13,SE,146,8.0,10.0,-999,-99.99,,,-99.99,,2013-04-09 19:33:00,
2013-04-09 15:53:00,79.0,-99.9,30.12,North,-999,-999.0,-999.0,-999,-99.99,,,-99.99,,2013-04-09 19:53:00,
2013-04-09 16:03:00,-999.0,-99.9,30.12,SE,125,4.0,6.0,-999,-99.99,,,-99.99,,2013-04-09 20:03:00,
2013-04-09 16:23:00,-999.0,-99.9,30.11,ESE,109,4.0,6.0,-999,-99.99,,,-99.99,,2013-04-09 20:23:00,
2013-04-09 16:35:00,-999.0,-99.9,30.11,ESE,106,3.0,5.0,-999,-99.99,,,-99.99,,2013-04-09 20:35:00,
2013-04-09 16:44:00,-999.0,-99.9,30.11,ESE,120,4.0,7.0,-999,-99.99,,,-99.99,,2013-04-09 20:44:00,
2013-04-09 16:53:00,79.0,-99.9,30.11,North,-999,-999.0,-999.0,-999,-99.99,,,-99.99,,2013-04-09 20:53:00,
2013-04-09 17:03:00,-999.0,-99.9,30.10,ESE,108,2.0,5.0,-999,-99.99,,,-99.99,,2013-04-09 21:03:00,
2013-04-09 17:14:00,-999.0,-99.9,30.10,ESE,108,2.0,5.0,-999,-99.99,,,-99.99,,2013-04-09 21:14:00,
2013-04-09 17:23:00,-999.0,-99.9,30.10,ESE,108,2.0,5.0,-999,-99.99,,,-99.99,,2013-04-09 21:23:00,
2013-04-09 17:33:00,-999.0,-99.9,30.10,East,101,4.0,7.0,-999,-99.99,,,-99.99,,2013-04-09 21:33:00,
2013-04-09 17:43:00,-999.0,-99.9,30.10,East,101,4.0,7.0,-999,-99.99,,,-99.99,,2013-04-09 21:43:00,
2013-04-09 17:53:00,78.0,-99.9,30.10,North,-999,-999.0,-999.0,-999,-99.99,,,-99.99,,2013-04-09 21:53:00,
2013-04-09 18:04:00,-999.0,-99.9,30.10,South,177,7.0,9.0,-999,-99.99,,,-99.99,,2013-04-09 22:04:00,
2013-04-09 18:13:00,-999.0,-99.9,30.09,SW,222,5.0,9.0,-999,-99.99,,,-99.99,,2013-04-09 22:13:00,
2013-04-09 18:23:00,79.0,-99.9,30.09,North,-999,-999.0,-999.0,-999,-99.99,,,-99.99,,2013-04-09 22:23:00,
2013-04-09 18:34:00,-999.0,-99.9,30.10,WSW,242,8.0,9.0,-999,-99.99,,,-99.99,,2013-04-09 22:34:00,
2013-04-09 18:43:00,-999.0,-99.9,30.09,SW,229,7.0,10.0,-999,-99.99,,,-99.99,,2013-04-09 22:43:00,
2013-04-09 18:54:00,78.0,-99.9,30.10,North,-999,-999.0,-999.0,-999,-99.99,,,-99.99,,2013-04-09 22:54:00,
2013-04-09 19:03:00,-999.0,-99.9,30.10,West,271,8.0,9.0,-999,-99.99,,,-99.99,,2013-04-09 23:03:00,
2013-04-09 19:13:00,-999.0,-99.9,30.10,West,266,9.0,10.0,-999,-99.99,,,-99.99,,2013-04-09 23:13:00,
2013-04-09 19:23:00,-999.0,-99.9,30.10,WSW,258,8.0,11.0,-999,-99.99,,,-99.99,,2013-04-09 23:23:00,
2013-04-09 19:33:00,77.0,-99.9,30.10,North,-999,-999.0,-999.0,-999,-99.99,,,-99.99,,2013-04-09 23:33:00,
2013-04-09 19:43:00,-999.0,-99.9,30.10,WNW,285,6.0,8.0,-999,-99.99,,,-99.99,,2013-04-09 23:43:00,
2013-04-09 19:53:00,-999.0,-99.9,30.10,WNW,294,5.0,6.0,-999,-99.99,,,-99.99,,2013-04-09 23:53:00,
2013-04-09 20:03:00,-999.0,-99.9,30.10,WNW,294,5.0,6.0,-999,-99.99,,,-99.99,,2013-04-10 00:03:00,
2013-04-09 20:13:00,-999.0,-99.9,30.10,WNW,294,5.0,6.0,-999,-99.99,,,-99.99,,2013-04-10 00:13:00,
2013-04-09 20:23:00,-999.0,-99.9,30.11,West,281,5.0,6.0,-999,-99.99,,,-99.99,,2013-04-10 00:23:00,
2013-04-09 20:33:00,-999.0,-99.9,30.11,WNW,301,4.0,6.0,-999,-99.99,,,-99.99,,2013-04-10 00:33:00,
2013-04-09 20:43:00,76.0,-99.9,30.11,North,-999,-999.0,-999.0,-999,-99.99,,,-99.99,,2013-04-10 00:43:00,
2013-04-09 20:53:00,76.0,-99.9,30.11,North,-999,-999.0,-999.0,-999,-99.99,,,-99.99,,2013-04-10 00:53:00,
2013-04-09 21:02:00,-999.0,-99.9,30.12,WSW,256,2.0,3.0,-999,-99.99,,,-99.99,,2013-04-10 01:02:00,
2013-04-09 21:23:00,-999.0,-99.9,30.12,North,351,4.0,4.0,-999,-99.99,,,-99.99,,2013-04-10 01:23:00,
2013-04-09 21:43:00,-999.0,-99.9,30.12,NNE,20,5.0,6.0,-999,-99.99,,,-99.99,,2013-04-10 01:43:00,
2013-04-09 21:53:00,76.0,-99.9,30.13,North,-999,-999.0,-999.0,-999,-99.99,,,-99.99,,2013-04-10 01:53:00,
2013-04-09 22:03:00,-999.0,-99.9,30.13,East,87,4.0,6.0,-999,-99.99,,,-99.99,,2013-04-10 02:03:00,
2013-04-09 22:23:00,75.0,-99.9,30.14,North,-999,-999.0,-999.0,-999,-99.99,,,-99.99,,2013-04-10 02:23:00,
2013-04-09 22:33:00,75.0,-99.9,30.15,North,-999,-999.0,-999.0,-999,-99.99,,,-99.99,,2013-04-10 02:33:00,
2013-04-09 22:43:00,74.0,-99.9,30.15,North,-999,-999.0,-999.0,-999,-99.99,,,-99.99,,2013-04-10 02:43:00,
2013-04-09 22:53:00,-999.0,-99.9,30.15,East,91,5.0,8.0,-999,-99.99,,,-99.99,,2013-04-10 02:53:00,
2013-04-09 23:03:00,-999.0,-99.9,30.15,East,101,4.0,8.0,-999,-99.99,,,-99.99,,2013-04-10 03:03:00,
2013-04-09 23:22:00,74.0,-99.9,30.15,North,-999,-999.0,-999.0,-999,-99.99,,,-99.99,,2013-04-10 03:22:00,
2013-04-09 23:33:00,-999.0,-99.9,30.15,East,90,6.0,8.0,-999,-99.99,,,-99.99,,2013-04-10 03:33:00,
2013-04-09 23:43:00,73.0,-99.9,30.15,North,-999,-999.0,-999.0,-999,-99.99,,,-99.99,,2013-04-10 03:43:00,
2013-04-09 23:53:00,-999.0,-99.9,30.15,ESE,102,4.0,9.0,-999,-99.99,,,-99.99,,2013-04-10 03:53:00,